METLOCID,DATE_TIME,AVG_AIRT2M,STDDEV_AIRT2M,MIN_AIRT2M,MAX_AIRT2M,N_AIRT2M,AVG_AIRT1_3M,STDDEV_AIRT1_3M,MIN_AIRT1_3M,MAX_AIRT1_3M,N_AIRT1_3M,N_COMMENTS
FLMM,1/8/11,-13.36096154,0.407018136,-14.08,-12.62,52,,,,,0,0
FLMM,1/9/11,-14.06385417,0.585294114,-15.3,-12.35,96,,,,,0,0
FLMM,1/10/11,-14.185625,1.103963017,-15.8,-12.18,96,,,,,0,0
FLMM,1/11/11,-13.99770833,0.618358573,-14.97,-12.33,96,,,,,0,0
FLMM,1/12/11,-14.9484375,0.530599121,-16.36,-14.09,96,,,,,0,0
FLMM,1/13/11,-14.71572917,1.321160371,-16.84,-13,96,,,,,0,0
FLMM,1/14/11,-13.67135417,0.686873343,-14.56,-12.44,96,,,,,0,0
FLMM,1/15/11,-13.5665625,1.201255333,-15.66,-11.64,96,,,,,0,0
FLMM,1/16/11,-12.58760417,0.569734462,-13.56,-11.34,96,,,,,0,0
FLMM,1/17/11,-11.11708333,1.675872698,-13.69,-8.88,96,,,,,0,0
FLMM,1/18/11,-9.465520833,0.815173046,-10.65,-7.91,96,,,,,0,0
FLMM,1/19/11,-11.36427083,0.592556895,-12.83,-9.86,96,,,,,0,0
FLMM,1/20/11,-13.05354167,0.579675007,-13.9,-11.07,96,,,,,0,0
FLMM,1/21/11,-13.95510417,0.829174599,-15.52,-11.67,96,,,,,0,0
FLMM,1/22/11,-12.74947917,1.449562816,-15.98,-10.43,96,,,,,0,0
FLMM,1/23/11,-16.02447917,0.505456271,-17.22,-15.15,96,,,,,0,0
FLMM,1/24/11,-15.99135417,1.226191897,-20.3,-13.6,96,,,,,0,0
FLMM,1/25/11,-14.33604167,1.1213211,-16.56,-12.27,96,,,,,0,0
FLMM,1/26/11,-15.43947917,0.997113064,-16.66,-13.03,96,,,,,0,0
FLMM,1/27/11,-16.99989583,0.398363745,-18.37,-16.1,96,,,,,0,0
FLMM,1/28/11,-17.79572917,1.006783042,-19.12,-14.97,96,,,,,0,0
FLMM,1/29/11,-15.79458333,1.07062787,-18.59,-14.32,96,,,,,0,0
FLMM,1/30/11,-18.49041667,0.701306925,-19.43,-15.98,96,,,,,0,0
FLMM,1/31/11,-18.38104167,0.575427492,-19.5,-17.22,96,,,,,0,0
FLMM,2/1/11,-17.24135417,1.938174192,-20.19,-14.25,96,,,,,0,0
FLMM,2/2/11,-15.5565625,0.496272056,-16.97,-14.47,96,,,,,0,0
FLMM,2/3/11,-18.09135417,0.56296325,-19.19,-16.36,96,,,,,0,0
FLMM,2/4/11,-20.00229167,1.020042805,-21.81,-18.41,96,,,,,0,0
FLMM,2/5/11,-18.92020833,1.206977939,-20.78,-17.03,96,,,,,0,0
FLMM,2/6/11,-16.93302083,0.892293461,-18.41,-15.09,96,,,,,0,0
FLMM,2/7/11,-17.13760417,2.436922885,-21.69,-12.74,96,,,,,0,0
FLMM,2/8/11,-20.4484375,1.640124724,-23.34,-18.05,96,,,,,0,0
FLMM,2/9/11,-19.30260417,1.043537753,-21.19,-17.41,96,,,,,0,0
FLMM,2/10/11,-18.78427083,1.558614597,-21.01,-15.88,96,,,,,0,0
FLMM,2/11/11,-21.75895833,1.101875415,-23.92,-19.19,96,,,,,0,0
FLMM,2/12/11,-21.42229167,1.063561523,-22.91,-18.84,96,,,,,0,0
FLMM,2/13/11,-21.76229167,1.184832637,-23.84,-19.04,96,,,,,0,0
FLMM,2/14/11,-22.21802083,1.100499044,-24.13,-20.23,96,,,,,0,0
FLMM,2/15/11,-21.67229167,0.796623769,-22.79,-20.09,96,,,,,0,0
FLMM,2/16/11,-21.2459375,1.960914168,-24.52,-18.88,96,,,,,0,0
FLMM,2/17/11,-18.52,0.937094052,-20.05,-16.66,96,,,,,0,0
FLMM,2/18/11,-18.339375,0.76153835,-19.34,-16.76,96,,,,,0,0
FLMM,2/19/11,-18.52229167,0.465286509,-19.45,-17.24,96,,,,,0,0
FLMM,2/20/11,-16.295625,1.92447057,-19.4,-13.48,96,,,,,0,0
FLMM,2/21/11,-16.36802083,1.17328026,-18.41,-13.87,96,,,,,0,0
FLMM,2/22/11,-19.98208333,1.174007009,-22.01,-18.13,96,,,,,0,0
FLMM,2/23/11,-20.1053125,1.237891206,-22.14,-18.54,96,,,,,0,0
FLMM,2/24/11,-16.77760417,1.764910461,-19.32,-14.09,96,,,,,0,0
FLMM,2/25/11,-13.94864583,1.642791988,-16.91,-10.76,96,,,,,0,0
FLMM,2/26/11,-14.54739583,1.143428128,-16.94,-10.88,96,,,,,0,0
FLMM,2/27/11,-15.94458333,1.316398529,-18.73,-12.8,96,,,,,0,0
FLMM,2/28/11,-18.33010417,1.896595007,-22.06,-15.51,96,,,,,0,0
FLMM,3/1/11,-21.88479167,0.701464602,-24.22,-21,96,,,,,0,0
FLMM,3/2/11,-19.83958333,0.913695696,-21.3,-17.78,96,,,,,0,0
FLMM,3/3/11,-24.38739583,1.367259452,-26.36,-20.83,96,,,,,0,0
FLMM,3/4/11,-27.0465625,1.067415795,-28.9,-25.34,96,,,,,0,0
FLMM,3/5/11,-26.67197917,1.269995126,-28.93,-24.99,96,,,,,0,0
FLMM,3/6/11,-23.51583333,1.273564965,-25.83,-21.75,96,,,,,0,0
FLMM,3/7/11,-21.66375,0.86200287,-23.15,-20.56,96,,,,,0,0
FLMM,3/8/11,-20.61104167,0.578850911,-22.29,-19.36,96,,,,,0,0
FLMM,3/9/11,-21.19072917,1.618032753,-24.25,-17.93,96,,,,,0,0
FLMM,3/10/11,-26.096875,1.777553204,-30.39,-23.58,96,,,,,0,0
FLMM,3/11/11,-29.91802083,0.733221615,-31.3,-28.37,96,,,,,0,0
FLMM,3/12/11,-24.8703125,2.498934701,-29.54,-21.43,96,,,,,0,0
FLMM,3/13/11,-28.354375,0.972418377,-31.29,-26.41,96,,,,,0,0
FLMM,3/14/11,-29.60375,0.90523652,-31,-26.95,96,,,,,0,0
FLMM,3/15/11,-30.06864583,0.711978148,-31.85,-27.97,96,,,,,0,0
FLMM,3/16/11,-27.07604167,1.173520551,-29.82,-24.79,96,,,,,0,0
FLMM,3/17/11,-24.3065625,1.678770119,-29.37,-21.86,96,,,,,0,0
FLMM,3/18/11,-23.811875,1.408269795,-28.37,-21.69,96,,,,,0,0
FLMM,3/19/11,-25.43802083,1.233386967,-30.09,-24.1,96,,,,,0,0
FLMM,3/20/11,-23.18833333,0.936403722,-25.5,-21.62,96,,,,,0,0
FLMM,3/21/11,-22.50041667,0.84127712,-23.63,-20.2,96,,,,,0,0
FLMM,3/22/11,-18.74479167,1.366457563,-22.25,-16.55,96,,,,,0,0
FLMM,3/23/11,-19.48864583,0.818821515,-21.76,-18.11,96,,,,,0,0
FLMM,3/24/11,-19.53322917,1.774173489,-22.56,-16.55,96,,,,,0,0
FLMM,3/25/11,-19.25864583,1.105450249,-23.55,-16.49,96,,,,,0,0
FLMM,3/26/11,-17.68072917,2.406184682,-24.18,-14.15,96,,,,,0,0
FLMM,3/27/11,-24.15979167,4.717332872,-31.91,-13.58,96,,,,,0,0
FLMM,3/28/11,-30.38114583,2.607880716,-34.19,-24.55,96,,,,,0,0
FLMM,3/29/11,-27.58020833,1.122829114,-32.12,-25.77,96,,,,,0,0
FLMM,3/30/11,-27.32333333,1.140783357,-29.73,-25.03,96,,,,,0,0
FLMM,3/31/11,-29.40677083,0.62236306,-30.46,-27.47,96,,,,,0,0
FLMM,4/1/11,-28.22270833,0.793434213,-31.1,-26.29,96,,,,,0,0
FLMM,4/2/11,-29.684375,1.006576075,-31.7,-27.67,96,,,,,0,0
FLMM,4/3/11,-28.99552083,1.28266242,-31.96,-27.21,96,,,,,0,0
FLMM,4/4/11,-30.44020833,1.468446353,-33.17,-27.48,96,,,,,0,0
FLMM,4/5/11,-31.784375,1.492881222,-34.43,-28.88,96,,,,,0,0
FLMM,4/6/11,-37.008125,1.564343691,-39.88,-34.02,96,,,,,0,0
FLMM,4/7/11,-34.32572917,3.732161712,-39.95,-29.49,96,,,,,0,0
FLMM,4/8/11,-30.42,0.997938929,-32.16,-29.05,96,,,,,0,0
FLMM,4/9/11,-34.42916667,2.017406708,-37.07,-31.42,96,,,,,0,0
FLMM,4/10/11,-31.12770833,2.999256567,-35.8,-25.87,96,,,,,0,0
FLMM,4/11/11,-24.67260417,1.556393432,-27.55,-21.91,96,,,,,0,0
FLMM,4/12/11,-24.82385417,0.50648296,-25.84,-23.36,96,,,,,0,0
FLMM,4/13/11,-26.23791667,0.729150792,-27.41,-24.2,96,,,,,0,0
FLMM,4/14/11,-22.67354167,2.279836088,-25.62,-18.42,96,,,,,0,0
FLMM,4/15/11,-17.57989583,1.264551924,-19.07,-15.08,96,,,,,0,0
FLMM,4/16/11,-13.84041667,1.529826214,-17.38,-11.79,96,,,,,0,0
FLMM,4/17/11,-18.8684375,1.453465788,-26.78,-16.88,96,,,,,0,0
FLMM,4/18/11,-21.04895833,2.849145571,-30.21,-17.59,96,,,,,0,0
FLMM,4/19/11,-20.356875,1.446668268,-25.16,-18.16,96,,,,,0,0
FLMM,4/20/11,-19.470625,1.191050675,-25.52,-16.84,96,,,,,0,0
FLMM,4/21/11,-19.9390625,2.969625203,-26.58,-16.21,96,,,,,0,0
FLMM,4/22/11,-28.93145833,4.715322834,-34.54,-19.55,96,,,,,0,0
FLMM,4/23/11,-33.2565625,2.427237038,-37.41,-29.15,96,,,,,0,0
FLMM,4/24/11,-30.52333333,1.437226618,-33.38,-27.18,96,,,,,0,0
FLMM,4/25/11,-32.013125,3.06997182,-38.24,-26.46,96,,,,,0,0
FLMM,4/26/11,-28.18291667,2.780598919,-33.96,-23.79,96,,,,,0,0
FLMM,4/27/11,-22.8478125,1.492886433,-26.05,-20.55,96,,,,,0,0
FLMM,4/28/11,-27.68770833,0.963707183,-29.73,-25.97,96,,,,,0,0
FLMM,4/29/11,-25.16427083,0.609304599,-25.97,-23.59,96,,,,,0,0
FLMM,4/30/11,-23.47989583,0.717657732,-24.95,-22.4,96,,,,,0,0
FLMM,5/1/11,-24.81145833,0.504833436,-25.87,-23.39,96,,,,,0,0
FLMM,5/2/11,-26.17885417,1.174405892,-28.09,-23.75,96,,,,,0,0
FLMM,5/3/11,-28.46739583,1.40773371,-31.18,-26.14,96,,,,,0,0
FLMM,5/4/11,-26.47197917,1.823213831,-29.63,-24.27,96,,,,,0,0
FLMM,5/5/11,-32.66291667,1.604790799,-34.68,-28.96,96,,,,,0,0
FLMM,5/6/11,-33.89302083,1.475929766,-35.67,-30.11,96,,,,,0,0
FLMM,5/7/11,-31.5590625,1.238466011,-33.4,-28.19,96,,,,,0,0
FLMM,5/8/11,-34.558125,1.031151949,-36.99,-32.41,96,,,,,0,0
FLMM,5/9/11,-30.5215625,1.684935937,-33.84,-27.23,96,,,,,0,0
FLMM,5/10/11,-26.41875,3.512854964,-32.17,-19.54,96,,,,,0,0
FLMM,5/11/11,-25.25572917,2.196154891,-31.39,-21.13,96,,,,,0,0
FLMM,5/12/11,-21.23104167,1.366195239,-27.76,-19.51,96,,,,,0,0
FLMM,5/13/11,-24.26145833,1.210514444,-26.5,-21.17,96,,,,,0,0
FLMM,5/14/11,-27.668125,1.617939113,-31.05,-24.79,96,,,,,0,0
FLMM,5/15/11,-29.37333333,0.519703694,-30.48,-28.05,96,,,,,0,0
FLMM,5/16/11,-28.34458333,0.986020088,-30.03,-26.24,96,,,,,0,0
FLMM,5/17/11,-27.46447917,0.743398837,-28.46,-25.49,96,,,,,0,0
FLMM,5/18/11,-27.38625,0.566699122,-28.48,-26.31,96,,,,,0,0
FLMM,5/19/11,-25.11302083,1.104925927,-26.81,-23.36,96,,,,,0,0
FLMM,5/20/11,-24.404375,0.437860378,-25.38,-23.49,96,,,,,0,0
FLMM,5/21/11,-24.5240625,0.23583035,-24.95,-24.08,96,,,,,0,0
FLMM,5/22/11,-23.01614583,2.592127909,-27.82,-19.61,96,,,,,0,0
FLMM,5/23/11,-30.31177083,1.926458433,-33.63,-26.83,96,,,,,0,0
FLMM,5/24/11,-30.7090625,0.919022453,-32.89,-28.43,96,,,,,0,0
FLMM,5/25/11,-31.59822917,2.615706806,-36.38,-28.79,96,,,,,0,0
FLMM,5/26/11,-33.05947917,2.271605678,-36.48,-28.62,96,,,,,0,0
FLMM,5/27/11,-28.6175,3.651104519,-35.49,-24.37,96,,,,,0,0
FLMM,5/28/11,-33.1378125,0.666063381,-34.55,-31.4,96,,,,,0,0
FLMM,5/29/11,-26.8715625,2.085557014,-31.61,-23.65,96,,,,,0,0
FLMM,5/30/11,-27.41416667,1.901749702,-29.66,-23.93,96,,,,,0,0
FLMM,5/31/11,-28.21614583,0.683955015,-29.27,-27.19,96,,,,,0,0
FLMM,6/1/11,-27.90520833,1.788144572,-30.96,-25.18,96,,,,,0,0
FLMM,6/2/11,-30.27552083,0.577666576,-30.94,-28.71,96,,,,,0,0
FLMM,6/3/11,-29.0246875,0.973173813,-30.44,-26.46,96,,,,,0,0
FLMM,6/4/11,-30.81166667,1.580194969,-33.76,-26.96,96,,,,,0,0
FLMM,6/5/11,-30.39916667,0.651391493,-32.32,-29.38,96,,,,,0,0
FLMM,6/6/11,-26.43583333,2.437964495,-29.46,-21.81,96,,,,,0,0
FLMM,6/7/11,-26.77916667,1.305443394,-28.96,-23.91,96,,,,,0,0
FLMM,6/8/11,-29.91625,1.055950806,-31.56,-27.32,96,,,,,0,0
FLMM,6/9/11,-25.36041667,0.808003279,-27.14,-23.68,96,,,,,0,0
FLMM,6/10/11,-25.27635417,1.312726468,-27.2,-23.32,96,,,,,0,0
FLMM,6/11/11,-27.12989583,0.804544323,-29.16,-25.91,96,,,,,0,0
FLMM,6/12/11,-29.5378125,0.584746824,-30.3,-28.27,96,,,,,0,0
FLMM,6/13/11,-26.60864583,1.429575292,-29.05,-24.13,96,,,,,0,0
FLMM,6/14/11,-25.55010417,0.971965448,-27.03,-23.99,96,,,,,0,0
FLMM,6/15/11,-25.639375,1.078429475,-27.16,-23.04,96,,,,,0,0
FLMM,6/16/11,-23.55625,0.876444072,-24.91,-21.83,96,,,,,0,0
FLMM,6/17/11,-19.99541667,0.696245445,-21.73,-18.37,96,,,,,0,0
FLMM,6/18/11,-20.96947917,1.101001812,-22.93,-18.46,96,,,,,0,0
FLMM,6/19/11,-28.00072917,2.4914968,-31.71,-23.12,96,,,,,0,0
FLMM,6/20/11,-28.11489583,1.062787789,-31.54,-25.46,96,,,,,0,0
FLMM,6/21/11,-29.2384375,1.644164371,-32.62,-26.34,96,,,,,0,0
FLMM,6/22/11,-29.53875,1.455800919,-32.81,-26.82,96,,,,,0,0
FLMM,6/23/11,-34.35447917,2.591083443,-37.88,-28.64,96,,,,,0,0
FLMM,6/24/11,-30.45770833,2.03182235,-34.89,-27.26,96,,,,,0,0
FLMM,6/25/11,-32.02854167,0.670432663,-33.19,-30.68,96,,,,,0,0
FLMM,6/26/11,-33.83229167,0.672843892,-35.45,-32.46,96,,,,,0,0
FLMM,6/27/11,-31.485625,1.467358394,-34.44,-29.06,96,,,,,0,0
FLMM,6/28/11,-28.846875,0.688099308,-30.26,-27.64,96,,,,,0,0
FLMM,6/29/11,-26.873125,1.067763341,-29.29,-25.24,96,,,,,0,0
FLMM,6/30/11,-28.15229167,0.731151189,-29.89,-26.66,96,,,,,0,0
FLMM,7/1/11,-27.81625,1.115778935,-29.86,-25.9,96,,,,,0,0
FLMM,7/2/11,-29.23989583,1.225711819,-31.35,-26.63,96,,,,,0,0
FLMM,7/3/11,-31.31666667,2.630463904,-34.44,-26.28,96,,,,,0,0
FLMM,7/4/11,-27.96114583,1.329351935,-31.53,-26.02,96,,,,,0,0
FLMM,7/5/11,-26.97895833,1.675934604,-30.16,-22.06,96,,,,,0,0
FLMM,7/6/11,-29.00489583,2.836254756,-34.73,-24.86,96,,,,,0,0
FLMM,7/7/11,-33.338125,1.505263965,-35.7,-30.61,96,,,,,0,0
FLMM,7/8/11,-27.65885417,1.82273298,-31.85,-25.25,96,,,,,0,0
FLMM,7/9/11,-27.72166667,0.737584488,-29.56,-25.8,96,,,,,0,0
FLMM,7/10/11,-28.53375,0.842090444,-29.81,-26.24,96,,,,,0,0
FLMM,7/11/11,-26.09020833,1.136994171,-27.88,-23.86,96,,,,,0,0
FLMM,7/12/11,-24.59645833,1.914451401,-29.79,-22.29,96,,,,,0,0
FLMM,7/13/11,-31.17135417,0.807704505,-33.01,-29.38,96,,,,,0,0
FLMM,7/14/11,-26.66291667,1.747884084,-30.07,-23.83,96,,,,,0,0
FLMM,7/15/11,-20.70260417,2.060619858,-24.22,-17.6,96,,,,,0,0
FLMM,7/16/11,-22.39270833,3.344947322,-27.61,-17.87,96,,,,,0,0
FLMM,7/17/11,-27.91854167,1.408363723,-30.6,-24.87,96,,,,,0,0
FLMM,7/18/11,-21.81833333,0.994897156,-24.77,-20.61,96,,,,,0,0
FLMM,7/19/11,-23.4753125,1.160138788,-25.09,-20.76,96,,,,,0,0
FLMM,7/20/11,-23.73927083,1.067550314,-25.33,-21.89,96,,,,,0,0
FLMM,7/21/11,-26.13010417,2.921433136,-30.3,-21.49,96,,,,,0,0
FLMM,7/22/11,-27.43177083,3.471035943,-33.46,-20.22,96,,,,,0,0
FLMM,7/23/11,-24.7371875,2.21007297,-29.62,-19.06,96,,,,,0,0
FLMM,7/24/11,-30.54020833,0.582508151,-31.66,-28.89,96,,,,,0,0
FLMM,7/25/11,-30.8590625,0.410165764,-31.83,-29.69,96,,,,,0,0
FLMM,7/26/11,-28.2571875,1.395349949,-30.55,-25.13,96,,,,,0,0
FLMM,7/27/11,-24.95520833,0.56198891,-26.33,-23.46,96,,,,,0,0
FLMM,7/28/11,-26.79770833,2.212393074,-30.62,-22.23,96,,,,,0,0
FLMM,7/29/11,-29.60166667,0.76450282,-31.07,-27.87,96,,,,,0,0
FLMM,7/30/11,-28.32458333,1.312960429,-31.15,-26.23,96,,,,,0,0
FLMM,7/31/11,-28.5453125,1.953562981,-31.31,-25.66,96,,,,,0,0
FLMM,8/1/11,-23.29114583,1.126638101,-26.1,-20.86,96,,,,,0,0
FLMM,8/2/11,-20.35416667,1.921510188,-22.96,-16.36,96,,,,,0,0
FLMM,8/3/11,-15.69895833,0.970121511,-21.25,-14.95,96,,,,,0,0
FLMM,8/4/11,-17.7303125,0.667036578,-19.17,-16.67,96,,,,,0,0
FLMM,8/5/11,-20.77677083,3.237763847,-29.19,-14.79,96,,,,,0,0
FLMM,8/6/11,-22.56833333,3.013807756,-29.98,-15.79,96,,,,,0,0
FLMM,8/7/11,-26.95895833,1.443945967,-28.96,-22.94,96,,,,,0,0
FLMM,8/8/11,-30.30802083,1.669841228,-32.83,-25.46,96,,,,,0,0
FLMM,8/9/11,-33.4028125,1.484351145,-36.07,-30.04,96,,,,,0,0
FLMM,8/10/11,-30.34052083,1.884948342,-32.36,-25.85,96,,,,,0,0
FLMM,8/11/11,-23.7740625,0.971949293,-26.07,-21.95,96,,,,,0,0
FLMM,8/12/11,-23.0928125,0.936826337,-25.46,-21.6,96,,,,,0,0
FLMM,8/13/11,-26.7071875,0.776181887,-28.74,-24.9,96,,,,,0,0
FLMM,8/14/11,-28.68677083,1.087511398,-31.05,-26.42,96,,,,,0,0
FLMM,8/15/11,-24.075,1.442684632,-27.9,-21.64,96,,,,,0,0
FLMM,8/16/11,-25.548125,1.428383195,-27.93,-22.45,96,,,,,0,0
FLMM,8/17/11,-26.3328125,3.558988828,-35.2,-20.36,96,,,,,0,0
FLMM,8/18/11,-24.6490625,2.699091106,-35.22,-20.95,96,,,,,0,0
FLMM,8/19/11,-35.08083333,3.897312614,-39.82,-27.08,96,,,,,0,0
FLMM,8/20/11,-38.40010417,1.145036423,-40.46,-35.55,96,,,,,0,0
FLMM,8/21/11,-33.89625,1.88613682,-37.13,-31.06,96,,,,,0,0
FLMM,8/22/11,-34.61270833,1.436986232,-36.51,-31.2,96,,,,,0,0
FLMM,8/23/11,-25.44479167,2.14371197,-30.93,-22.21,96,,,,,0,0
FLMM,8/24/11,-27.06770833,2.474178855,-29.71,-22.1,96,,,,,0,0
FLMM,8/25/11,-27.90697917,0.691401505,-28.89,-25.66,96,,,,,0,0
FLMM,8/26/11,-27.4075,0.873376991,-29.36,-25.45,96,,,,,0,0
FLMM,8/27/11,-24.8515625,1.446415044,-27.08,-22.28,96,,,,,0,0
FLMM,8/28/11,-22.034375,0.618362545,-23.05,-20.75,96,,,,,0,0
FLMM,8/29/11,-23.43135417,0.375492995,-24.27,-22.74,96,,,,,0,0
FLMM,8/30/11,-23.13395833,0.892004814,-24.81,-21.08,96,,,,,0,0
FLMM,8/31/11,-24.54697917,1.016151791,-26.32,-22.14,96,,,,,0,0
FLMM,9/1/11,-22.2909375,1.497644521,-24.57,-19.19,96,,,,,0,0
FLMM,9/2/11,-23.38927083,0.608172837,-24.39,-21.24,96,,,,,0,0
FLMM,9/3/11,-22.34739583,2.01002029,-25.35,-18.19,96,,,,,0,0
FLMM,9/4/11,-22.61052083,1.258055617,-25.31,-20.93,96,,,,,0,0
FLMM,9/5/11,-24.67895833,1.608346309,-27.31,-21.12,96,,,,,0,0
FLMM,9/6/11,-22.66510417,1.773698482,-26.44,-19.62,96,,,,,0,0
FLMM,9/7/11,-26.1828125,3.820774433,-33.29,-20.64,96,,,,,0,0
FLMM,9/8/11,-31.71552083,1.309097616,-33.69,-29.63,96,,,,,0,0
FLMM,9/9/11,-29.98833333,1.338979711,-32.34,-27.8,96,,,,,0,0
FLMM,9/10/11,-25.67333333,1.090696221,-27.66,-24.25,96,,,,,0,0
FLMM,9/11/11,-23.14020833,1.141526198,-24.63,-20.86,96,,,,,0,0
FLMM,9/12/11,-20.23020833,0.59412382,-21,-18.71,96,,,,,0,0
FLMM,9/13/11,-20.47333333,0.861112703,-22.67,-18.76,96,,,,,0,0
FLMM,9/14/11,-23.69833333,1.311341352,-26.12,-20.72,96,,,,,0,0
FLMM,9/15/11,-22.09666667,0.839382814,-24.36,-20.45,96,,,,,0,0
FLMM,9/16/11,-21.79729167,1.0715424,-24.64,-19.92,96,,,,,0,0
FLMM,9/17/11,-24.61229167,0.968277341,-29.62,-22.85,96,,,,,0,0
FLMM,9/18/11,-22.824375,2.13337233,-26.03,-18.11,96,,,,,0,0
FLMM,9/19/11,-27.22302083,2.308433563,-32.98,-23.35,96,,,,,0,0
FLMM,9/20/11,-29.30458333,2.476251801,-35.76,-23.83,96,,,,,0,0
FLMM,9/21/11,-30.58833333,0.540503988,-31.91,-29.04,96,,,,,0,0
FLMM,9/22/11,-29.50635417,1.222406703,-33.09,-25.91,96,,,,,0,0
FLMM,9/23/11,-26.11458333,2.059716852,-34.73,-20.73,96,,,,,0,0
FLMM,9/24/11,-33.1628125,3.366840063,-38.87,-27.33,96,,,,,0,0
FLMM,9/25/11,-37.40875,1.373554168,-40.02,-34.26,96,,,,,0,0
FLMM,9/26/11,-31.44802083,2.702727129,-37.4,-28.45,96,,,,,0,0
FLMM,9/27/11,-22.70729167,3.02592221,-29.28,-18.25,96,,,,,0,0
FLMM,9/28/11,-26.9525,3.9833374,-34.33,-18.95,96,,,,,0,0
FLMM,9/29/11,-30.89520833,3.870907953,-37.42,-23.54,96,,,,,0,0
FLMM,9/30/11,-34.45270833,3.115468531,-38.84,-28.06,96,,,,,0,0
FLMM,10/1/11,-35.94916667,3.028869397,-39.94,-30.71,96,,,,,0,0
FLMM,10/2/11,-26.7878125,2.552860605,-32.33,-23.28,96,,,,,0,0
FLMM,10/3/11,-25.08375,3.828307376,-32.9,-21.2,96,,,,,0,0
FLMM,10/4/11,-25.25302083,3.878942645,-33.26,-19.93,96,,,,,0,0
FLMM,10/5/11,-21.558125,1.095657757,-23.88,-19.64,96,,,,,0,0
FLMM,10/6/11,-23.9728125,1.256053723,-26.19,-21.81,96,,,,,0,0
FLMM,10/7/11,-20.260625,1.074172203,-21.84,-18.59,96,,,,,0,0
FLMM,10/8/11,-20.8984375,1.207802989,-23.16,-18.79,96,,,,,0,0
FLMM,10/9/11,-21.61322917,1.956825299,-27.75,-18.6,96,,,,,0,0
FLMM,10/10/11,-18.41520833,2.541197803,-23.21,-13.76,96,,,,,0,0
FLMM,10/11/11,-26.36833333,1.648998207,-30.52,-23.46,96,,,,,0,0
FLMM,10/12/11,-31.07552083,0.987637127,-32.89,-27.92,96,,,,,0,0
FLMM,10/13/11,-29.41385417,2.427450631,-33.56,-24.52,96,,,,,0,0
FLMM,10/14/11,-25.64520833,2.556995762,-29.67,-20.39,96,,,,,0,0
FLMM,10/15/11,-31.855,3.710609256,-38.21,-26.61,96,,,,,0,0
FLMM,10/16/11,-27.36416667,2.538732658,-32.01,-24.46,96,,,,,0,0
FLMM,10/17/11,-25.081875,1.126876739,-28.54,-23.3,96,,,,,0,0
FLMM,10/18/11,-25.78395833,0.740559503,-27.57,-23.79,96,,,,,0,0
FLMM,10/19/11,-26.70020833,1.920901093,-31.22,-23.5,96,,,,,0,0
FLMM,10/20/11,-31.11645833,0.9809544,-32.7,-29.39,96,,,,,0,0
FLMM,10/21/11,-28.97833333,1.002138415,-31.47,-27.7,96,,,,,0,0
FLMM,10/22/11,-29.94572917,1.325155597,-31.79,-27.83,96,,,,,0,0
FLMM,10/23/11,-28.1140625,1.164018067,-30.09,-26.04,96,,,,,0,0
FLMM,10/24/11,-26.82427083,1.372493501,-29,-24.98,96,,,,,0,0
FLMM,10/25/11,-25.82614583,1.019499743,-28.53,-23.91,96,,,,,0,0
FLMM,10/26/11,-25.07791667,2.022743794,-29.11,-22.75,96,,,,,0,0
FLMM,10/27/11,-20.45625,1.818897439,-23.58,-17.91,96,,,,,0,0
FLMM,10/28/11,-21.4425,1.368145883,-24.61,-18.82,96,,,,,0,0
FLMM,10/29/11,-25.31739583,0.643976536,-27.05,-24.12,96,,,,,0,0
FLMM,10/30/11,-26.36572917,1.339897675,-28.69,-24.38,96,,,,,0,0
FLMM,10/31/11,-27.23541667,1.111573486,-28.92,-25.56,96,,,,,0,0
FLMM,11/1/11,-25.03708333,2.118116301,-28.5,-22.27,96,,,,,0,0
FLMM,11/2/11,-17.86791667,2.091966547,-22.27,-15.32,96,,,,,0,0
FLMM,11/3/11,-18.190625,0.500475169,-19.78,-16.84,96,,,,,0,0
FLMM,11/4/11,-19.44104167,1.115373413,-20.95,-16.38,96,,,,,0,0
FLMM,11/5/11,-19.48645833,1.121285896,-21.45,-18.05,96,,,,,0,0
FLMM,11/6/11,-18.623125,0.290035615,-19.22,-17.92,96,,,,,0,0
FLMM,11/7/11,-17.72489583,0.970250098,-19.62,-16.47,96,,,,,0,0
FLMM,11/8/11,-16.40239583,1.159220922,-18.34,-14.66,96,,,,,0,0
FLMM,11/9/11,-16.71479167,1.140111702,-18.98,-14.83,96,,,,,0,0
FLMM,11/10/11,-15.90677083,0.965550287,-17.64,-14.34,96,,,,,0,0
FLMM,11/11/11,-18.0790625,0.999734784,-20.8,-16.8,96,,,,,0,0
FLMM,11/12/11,-19.14989583,0.954813285,-21.28,-17.57,96,,,,,0,0
FLMM,11/13/11,-16.70072917,1.405625723,-19.73,-14.74,96,,,,,0,0
FLMM,11/14/11,-14.44958333,1.30275006,-17,-12.82,96,,,,,0,0
FLMM,11/15/11,-12.24166667,1.322038829,-14.87,-10.23,96,,,,,0,0
FLMM,11/16/11,-10.73989583,0.846539078,-12.3,-9.02,96,,,,,0,0
FLMM,11/17/11,-14.69208333,1.035223766,-16.37,-12.16,96,,,,,0,0
FLMM,11/18/11,-16.58,1.784463357,-19.4,-13.71,96,,,,,0,0
FLMM,11/19/11,-22.0846875,1.497386462,-24.97,-18.96,96,,,,,0,0
FLMM,11/20/11,-20.81125,1.637096435,-23.28,-18.42,96,,,,,0,0
FLMM,11/21/11,-17.2621875,1.506122385,-19.74,-15.33,96,,,,,0,0
FLMM,11/22/11,-16.41260417,0.443517625,-17.23,-15.34,96,,,,,0,0
FLMM,11/23/11,-16.1496875,1.026406561,-17.9,-14.45,96,,,,,0,0
FLMM,11/24/11,-16.41489583,0.760742013,-17.74,-14.92,96,,,,,0,0
FLMM,11/25/11,-18.4209375,0.335794668,-19.07,-17.66,96,,,,,0,0
FLMM,11/26/11,-15.181875,2.170657583,-18.6,-11.66,96,,,,,0,0
FLMM,11/27/11,-16.63958333,0.792858807,-18.23,-15,96,,,,,0,0
FLMM,11/28/11,-15.320625,1.014376461,-16.96,-13.94,96,,,,,0,0
FLMM,11/29/11,-13.92052083,0.997691409,-16.08,-12.53,96,,,,,0,0
FLMM,11/30/11,-13.434375,0.558855621,-14.57,-12.23,96,,,,,0,0
FLMM,12/1/11,-13.56791667,0.963401776,-15.45,-11.55,96,,,,,0,0
FLMM,12/2/11,-13.47885417,0.856845954,-15.29,-11.44,96,,,,,0,0
FLMM,12/3/11,-13.6525,1.618511337,-17.26,-11.6,96,,,,,0,0
FLMM,12/4/11,-16.03333333,1.160259197,-18.05,-14.33,96,,,,,0,0
FLMM,12/5/11,-15.99291667,0.62263433,-17.2,-14.39,96,,,,,0,0
FLMM,12/6/11,-13.86052083,1.590571807,-16.91,-11.69,96,,,,,0,0
FLMM,12/7/11,-13.56854167,1.445301629,-15.72,-11.12,96,,,,,0,0
FLMM,12/8/11,-15.08052083,1.17273802,-16.88,-12.86,96,,,,,0,0
FLMM,12/9/11,-14.28739583,1.108357006,-16.11,-12.67,96,,,,,0,0
FLMM,12/10/11,-12.04395833,1.129256373,-13.81,-9.63,96,,,,,0,0
FLMM,12/11/11,-16.15677083,0.731741247,-17.23,-13.93,96,,,,,0,0
FLMM,12/12/11,-16.62458333,1.060690854,-18.24,-14.85,96,,,,,0,0
FLMM,12/13/11,-16.55885417,0.606341696,-17.47,-15.25,96,,,,,0,0
FLMM,12/14/11,-17.28416667,0.891310882,-18.5,-15.22,96,,,,,0,0
FLMM,12/15/11,-17.22552083,0.84523042,-18.79,-16,96,,,,,0,0
FLMM,12/16/11,-17.58375,0.710613153,-18.5,-15.9,96,,,,,0,0
FLMM,12/17/11,-18.6078125,0.84690794,-20.21,-17.24,96,,,,,0,0
FLMM,12/18/11,-18.06229167,0.833126615,-19.67,-16.71,96,,,,,0,0
FLMM,12/19/11,-17.301875,0.842566646,-19.15,-16.08,96,,,,,0,0
FLMM,12/20/11,-16.69229167,1.991481585,-19.34,-13.09,96,,,,,0,0
FLMM,12/21/11,-14.4978125,0.72049574,-16.16,-13.27,96,,,,,0,0
FLMM,12/22/11,-14.96854167,1.455821692,-17.44,-12.54,96,,,,,0,0
FLMM,12/23/11,-14.13875,2.216988118,-18.01,-11.09,96,,,,,0,0
FLMM,12/24/11,-12.4734375,1.356718043,-14.83,-10.77,96,,,,,0,0
FLMM,12/25/11,-9.606770833,1.114023996,-11.68,-8.24,96,,,,,0,0
FLMM,12/26/11,-10.161875,1.074999449,-11.56,-8.19,96,,,,,0,0
FLMM,12/27/11,-8.995416667,0.666037642,-10.76,-7.62,96,,,,,0,0
FLMM,12/28/11,-8.755,1.707128707,-13.66,-6.05,96,,,,,0,0
FLMM,12/29/11,-9.387604167,1.545141618,-12.44,-5.9,96,,,,,0,0
FLMM,12/30/11,-11.72583333,0.698997277,-13.36,-10.41,96,,,,,0,0
FLMM,12/31/11,-12.74572917,1.577245263,-15.22,-10.23,96,,,,,0,0
FLMM,1/1/12,-10.9315625,0.797888435,-12.42,-9.55,96,,,,,0,0
FLMM,1/2/12,-13.7809375,0.483937965,-14.9,-12.7,96,,,,,0,0
FLMM,1/3/12,-14.50479167,0.514891872,-15.61,-13.39,96,,,,,0,0
FLMM,1/4/12,-15.340625,0.720923111,-16.73,-13.96,96,,,,,0,0
FLMM,1/5/12,-15.99135417,0.81093399,-17.08,-14.58,96,,,,,0,0
FLMM,1/6/12,-15.46614583,0.927774212,-16.86,-13.4,96,,,,,0,0
FLMM,1/7/12,-14.36958333,1.527921131,-16.91,-12.24,96,,,,,0,0
FLMM,1/8/12,-13.39729167,0.795292041,-14.58,-12.12,96,,,,,0,0
FLMM,1/9/12,-13.33239583,1.065730039,-14.5,-11.23,96,,,,,0,0
FLMM,1/10/12,-13.65104167,0.831810301,-15.29,-11.98,96,,,,,0,0
FLMM,1/11/12,-10.29052083,2.740179545,-16.99,-6.99,96,,,,,0,0
FLMM,1/12/12,-9.3471875,1.306386501,-12.67,-7.65,96,,,,,0,0
FLMM,1/13/12,-12.748125,1.80399108,-16.34,-9.67,96,,,,,0,0
FLMM,1/14/12,-10.50927083,0.681971206,-11.74,-8.52,96,,,,,0,0
FLMM,1/15/12,-10.4396875,0.945929176,-12.55,-8.71,96,,,,,0,0
FLMM,1/16/12,-13.41364583,0.613466629,-15.29,-12.41,96,,,,,0,0
FLMM,1/17/12,-14.44072917,1.581220212,-16.96,-12.16,96,,,,,0,0
FLMM,1/18/12,-10.08010417,1.367820775,-13.04,-7.45,96,,,,,0,0
FLMM,1/19/12,-14.89416667,0.869718244,-17.11,-13.39,96,,,,,0,0
FLMM,1/20/12,-16.431875,0.628927763,-17.79,-14.99,96,,,,,0,0